Change the Weather History Date:

Monday, November 5, 2012

  Actual Average (KESN) Record (KESN)
Temperature  
Mean Temperature 42 °F -  
Max Temperature 46 °F 60 °F 80 °F (1961)
Min Temperature 37 °F 42 °F 26 °F (1951)
Degree Days  
Heating Degree Days 24    
Moisture  
Dew Point 28 °F    
Average Humidity 58    
Maximum Humidity 70    
Minimum Humidity 46    
Precipitation  
Precipitation 0.00 in - - ()
Sea Level Pressure  
Sea Level Pressure 30.09 in    
Wind  
Wind Speed 9 mph (North)    
Max Wind Speed 16 mph    
Max Gust Speed 22 mph    
Visibility 10 miles    
Events      
Averages and records for this station are not official NWS values.
T = Trace of Precipitation, MM = Missing Value Source: NWS Daily Summary

Daily Weather History Graph

Daily Weather History Graph

Search for Another Location

Airport or City:

Trip Planner

Search our weather history database for the weather conditions in past years. The results will help you decide how hot, cold, wet, or windy it might be!

Date:

Astronomy

Nov. 05, 2012 Rise Set
Actual Time 6:37 AM EST 4:59 PM EST
Civil Twilight 6:09 AM EST 5:27 PM EST
Nautical Twilight 5:37 AM EST 5:59 PM EST
Astronomical Twilight 5:06 AM EST 6:30 PM EST
Moon 10:35 PM EST (11/5) 11:55 AM EST (11/5)
Length of Visible Light 11h 18m
Length of Day
10h 22m
Waning Gibbous, 63% of the Moon is Illuminated
Nov 5
Waning Gibbous
Nov 6
Last Quarter
Nov 13
New
Nov 20
First Quarter
Nov 28
Full

Hourly Weather History & Observations

Time (EST) Temp. Windchill Dew Point Humidity Pressure Visibility Wind Dir Wind Speed Gust Speed Precip Events Conditions
12:14 AM 42.8 °F 37.0 °F 30.2 °F 61% 30.04 in 10.0 mi NNW 10.4 mph - N/A   Overcast
12:36 AM 42.8 °F 37.0 °F 32.0 °F 66% 30.04 in 10.0 mi North 10.4 mph - N/A   Overcast
12:57 AM 42.8 °F 38.0 °F 30.2 °F 61% 30.04 in 10.0 mi North 8.1 mph - N/A   Overcast
1:18 AM 42.8 °F 38.6 °F 30.2 °F 61% 30.04 in 10.0 mi North 6.9 mph - N/A   Overcast
1:40 AM 42.8 °F 38.6 °F 30.2 °F 61% 30.04 in 10.0 mi North 6.9 mph - N/A   Overcast
2:01 AM 42.8 °F 37.5 °F 30.2 °F 61% 30.04 in 10.0 mi NNW 9.2 mph - N/A   Overcast
2:22 AM 42.8 °F 39.3 °F 30.2 °F 61% 30.04 in 10.0 mi NNW 5.8 mph - N/A   Overcast
2:44 AM 42.8 °F 37.5 °F 30.2 °F 61% 30.04 in 10.0 mi North 9.2 mph - N/A   Overcast
3:05 AM 42.8 °F 38.6 °F 30.2 °F 61% 30.03 in 10.0 mi NNW 6.9 mph - N/A   Overcast
3:26 AM 42.8 °F 38.6 °F 30.2 °F 61% 30.03 in 10.0 mi North 6.9 mph - N/A   Overcast
3:48 AM 42.8 °F 37.5 °F 30.2 °F 61% 30.02 in 10.0 mi North 9.2 mph - N/A   Overcast
4:09 AM 42.8 °F 38.0 °F 30.2 °F 61% 30.03 in 10.0 mi North 8.1 mph - N/A   Overcast
4:30 AM 42.8 °F 37.5 °F 30.2 °F 61% 30.03 in 10.0 mi NNW 9.2 mph - N/A   Overcast
4:51 AM 42.8 °F 37.5 °F 32.0 °F 66% 30.04 in 10.0 mi North 9.2 mph - N/A   Overcast
5:13 AM 42.8 °F 37.5 °F 32.0 °F 66% 30.05 in 10.0 mi NNW 9.2 mph - N/A   Overcast
5:55 AM 41.0 °F 35.8 °F 32.0 °F 70% 30.05 in 10.0 mi NNW 8.1 mph - N/A   Overcast
6:17 AM 41.0 °F 35.8 °F 32.0 °F 70% 30.06 in 10.0 mi NNW 8.1 mph - N/A   Overcast
6:38 AM 41.0 °F 35.2 °F 32.0 °F 70% 30.06 in 10.0 mi NNW 9.2 mph - N/A   Overcast
6:59 AM 41.0 °F 35.8 °F 30.2 °F 65% 30.07 in 10.0 mi NNW 8.1 mph - N/A   Overcast
7:20 AM 41.0 °F 35.2 °F 28.4 °F 61% 30.08 in 10.0 mi NNW 9.2 mph - N/A   Overcast
7:41 AM 41.0 °F 35.2 °F 28.4 °F 61% 30.09 in 10.0 mi North 9.2 mph 19.6 mph N/A   Overcast
8:03 AM 41.0 °F 33.5 °F 28.4 °F 61% 30.10 in 10.0 mi North 13.8 mph 19.6 mph N/A   Overcast
8:24 AM 41.0 °F 32.8 °F 28.4 °F 61% 30.10 in 10.0 mi North 16.1 mph 21.9 mph N/A   Overcast
8:45 AM 41.0 °F 33.1 °F 26.6 °F 57% 30.10 in 10.0 mi North 15.0 mph 20.7 mph N/A   Overcast
9:28 AM 41.0 °F 33.5 °F 26.6 °F 57% 30.11 in 10.0 mi North 13.8 mph 20.7 mph N/A   Overcast
9:49 AM 42.8 °F 35.8 °F 26.6 °F 53% 30.11 in 10.0 mi NNW 13.8 mph 19.6 mph N/A   Overcast
10:31 AM 41.0 °F 35.2 °F 26.6 °F 57% 30.12 in 10.0 mi North 9.2 mph 17.3 mph N/A   Mostly Cloudy
10:53 AM 41.0 °F 35.2 °F 26.6 °F 57% 30.12 in 10.0 mi NNW 9.2 mph - N/A   Mostly Cloudy
11:14 AM 42.8 °F 38.0 °F 26.6 °F 53% 30.11 in 10.0 mi NNW 8.1 mph - N/A   Mostly Cloudy
11:35 AM 44.6 °F 39.7 °F 26.6 °F 49% 30.10 in 10.0 mi North 9.2 mph - N/A   Scattered Clouds
11:56 AM 44.6 °F 39.2 °F 26.6 °F 49% 30.10 in 10.0 mi North 10.4 mph - N/A   Clear
12:17 PM 44.6 °F 40.2 °F 26.6 °F 49% 30.09 in 10.0 mi North 8.1 mph - N/A   Scattered Clouds
12:39 PM 44.6 °F 40.2 °F 28.4 °F 53% 30.08 in 10.0 mi North 8.1 mph - N/A   Clear
1:00 PM 44.6 °F 39.7 °F 28.4 °F 53% 30.08 in 10.0 mi NNW 9.2 mph - N/A   Clear
2:04 PM 46.4 °F 41.5 °F 26.6 °F 46% 30.07 in 10.0 mi North 10.4 mph - N/A   Clear
2:25 PM 46.4 °F 41.9 °F 26.6 °F 46% 30.07 in 10.0 mi NNW 9.2 mph - N/A   Clear
2:46 PM 46.4 °F 41.1 °F 26.6 °F 46% 30.07 in 10.0 mi North 11.5 mph 17.3 mph N/A   Clear
3:07 PM 46.4 °F 41.5 °F 26.6 °F 46% 30.07 in 10.0 mi NNW 10.4 mph 16.1 mph N/A   Clear
3:29 PM 46.4 °F 42.4 °F 26.6 °F 46% 30.07 in 10.0 mi NW 8.1 mph 16.1 mph N/A   Clear
3:50 PM 46.4 °F 42.4 °F 26.6 °F 46% 30.07 in 10.0 mi NNW 8.1 mph 16.1 mph N/A   Clear
4:11 PM 46.4 °F 42.9 °F 26.6 °F 46% 30.08 in 10.0 mi NNW 6.9 mph - N/A   Clear
4:54 PM 44.6 °F 40.7 °F 26.6 °F 49% 30.09 in 10.0 mi NW 6.9 mph - N/A   Clear
5:15 PM 44.6 °F 40.2 °F 26.6 °F 49% 30.09 in 10.0 mi NNW 8.1 mph - N/A   Clear
5:36 PM 44.6 °F 40.7 °F 26.6 °F 49% 30.10 in 10.0 mi North 6.9 mph - N/A   Clear
5:57 PM 42.8 °F 39.3 °F 28.4 °F 57% 30.11 in 10.0 mi North 5.8 mph - N/A   Clear
6:18 PM 42.8 °F 39.3 °F 26.6 °F 53% 30.12 in 10.0 mi NNE 5.8 mph - N/A   Clear
7:01 PM 42.8 °F 40.1 °F 28.4 °F 57% 30.14 in 10.0 mi NNE 4.6 mph - N/A   Clear
7:22 PM 41.0 °F 38.0 °F 28.4 °F 61% 30.15 in 10.0 mi NNE 4.6 mph - N/A   Clear
7:43 PM 41.0 °F 35.8 °F 28.4 °F 61% 30.15 in 10.0 mi NNE 8.1 mph - N/A   Clear
8:05 PM 41.0 °F 38.0 °F 28.4 °F 61% 30.16 in 10.0 mi NNE 4.6 mph - N/A   Clear
8:26 PM 39.2 °F 34.2 °F 28.4 °F 65% 30.17 in 10.0 mi NNE 6.9 mph - N/A   Clear
9:30 PM 37.4 °F 32.8 °F 28.4 °F 70% 30.18 in 10.0 mi NNE 5.8 mph - N/A   Clear
9:51 PM 37.4 °F 33.8 °F 28.4 °F 70% 30.19 in 10.0 mi NNE 4.6 mph - N/A   Clear
10:12 PM 37.4 °F 32.8 °F 26.6 °F 65% 30.18 in 10.0 mi NNE 5.8 mph - N/A   Clear
10:34 PM 37.4 °F 33.8 °F 26.6 °F 65% 30.18 in 10.0 mi NNE 4.6 mph - N/A   Clear
10:55 PM 37.4 °F 34.9 °F 26.6 °F 65% 30.18 in 10.0 mi NE 3.5 mph - N/A   Clear
11:16 PM 37.4 °F 33.8 °F 26.6 °F 65% 30.18 in 10.0 mi NNE 4.6 mph - N/A   Clear
11:59 PM 37.4 °F 33.8 °F 26.6 °F 65% 30.19 in 10.0 mi NNE 4.6 mph - N/A   Clear